Back to catalog

FOSSASAT2E26

AliveAmateur RadioSSO
NORAD 69899·PAYLOAD·🇺🇸 United States

Launched Jul 7, 2026 from Vandenberg Space Force Base

Loading…

Next Passes (next 24 hours)

TLE

FreshSource: Space-Track

Epoch: Sep 14, 2026, 12:31 UTC

1 69899U 26156AG  26257.52200033  .00001459  00000-0  15199-3 0  9995
2 69899  97.7426 156.7430 0003254 263.2918  96.7930 14.91302114 10314

Track FOSSASAT2E26 in real time with AllMySat

Download on the App Store